User: anonymous
Location: Smithers
(54.7670°N, 127.1670°W)
Time: 08:51:27
(UTC-07:00)
Language:

ERBS - Orbit

View from above orbital plane
View from above orbital plane
View from above satellite
View from above satellite

Ground track
Ground track

The orbit data is extracted from the following two-line orbital elements,

1 15354U 84108B   14271.93730436  .00011604  00000-0  40751-3 0  6011
2 15354 057.0147 056.9601 0019853 043.7449 316.5168 15.29723830645496
Epoch (UTC): 28 September 2014 22:29:43
Eccentricity: 0.0019853
inclination: 57.0147°
perigee height: 463 km
apogee height: 490 km
right ascension of ascending node: 56.9601°
argument of perigee: 43.7449°
revolutions per day: 15.29723830
mean anomaly at epoch: 316.5168°
orbit number at epoch: 64549

The dashed part of the orbit path shows where the satellite is in the earth's shadow,  

DLR